| time (UTC) | temp F | wind direction | speed MPH | gust MPH | rain 1hr in | rain 24hr in | rain mn in | humidity % | barometer mb |
| 20260905153037 | 52 | 183 | 0.0 | 3.0 | 0.00 | 0.02 | 0.00 | 89 | 1019.8 |
| 20260905151537 | 50 | 179 | 1.0 | 3.0 | 0.00 | 0.02 | 0.00 | 89 | 1019.8 |
| 20260905150037 | 50 | 171 | 3.0 | 5.0 | 0.00 | 0.02 | 0.00 | 90 | 1019.8 |
| 20260905144538 | 49 | 162 | 3.0 | 5.0 | 0.00 | 0.02 | 0.00 | 90 | 1019.8 |
| 20260905143036 | 48 | 168 | 3.0 | 6.0 | 0.00 | 0.02 | 0.00 | 91 | 1019.7 |
| 20260905141538 | 48 | 165 | 3.0 | 7.0 | 0.00 | 0.02 | 0.00 | 91 | 1019.6 |
| 20260905140036 | 47 | 165 | 3.0 | 5.0 | 0.00 | 0.02 | 0.00 | 91 | 1019.4 |
| 20260905134536 | 46 | 160 | 2.0 | 5.0 | 0.00 | 0.02 | 0.00 | 90 | 1019.3 |
| 20260905133038 | 47 | 158 | 0.0 | 6.0 | 0.00 | 0.02 | 0.00 | 90 | 1019.1 |
| 20260905131538 | 47 | 161 | 3.0 | 5.0 | 0.00 | 0.02 | 0.00 | 90 | 1019.0 |
| 20260905130040 | 47 | 164 | 3.0 | 5.0 | 0.00 | 0.02 | 0.00 | 90 | 1018.9 |
| 20260905124538 | 47 | 167 | 3.0 | 5.0 | 0.00 | 0.02 | 0.00 | 89 | 1018.9 |
| 20260905123037 | 47 | 159 | 3.0 | 5.0 | 0.00 | 0.02 | 0.00 | 89 | 1018.9 |
| 20260905121537 | 47 | 158 | 4.0 | 6.0 | 0.00 | 0.02 | 0.00 | 88 | 1018.9 |
| 20260905120038 | 48 | 167 | 2.0 | 5.0 | 0.00 | 0.02 | 0.00 | 88 | 1018.9 |
| 20260905114537 | 49 | 160 | 3.0 | 5.0 | 0.00 | 0.02 | 0.00 | 87 | 1018.9 |
| 20260905111538 | 50 | 192 | 0.0 | 4.0 | 0.00 | 0.02 | 0.00 | 88 | 1018.8 |
| 20260905110037 | 50 | 159 | 2.0 | 5.0 | 0.00 | 0.02 | 0.00 | 88 | 1018.8 |
| 20260905103051 | 50 | 160 | 0.0 | 3.0 | 0.00 | 0.02 | 0.00 | 86 | 1018.7 |
| 20260905101536 | 51 | 187 | 0.0 | 2.0 | 0.00 | 0.02 | 0.00 | 86 | 1018.8 |
| 20260905100037 | 51 | 167 | 2.0 | 5.0 | 0.00 | 0.02 | 0.00 | 86 | 1018.8 |
| 20260905094536 | 51 | 171 | 3.0 | 5.0 | 0.00 | 0.02 | 0.00 | 86 | 1018.8 |
| 20260905093038 | 51 | 157 | 1.0 | 4.0 | 0.00 | 0.02 | 0.00 | 86 | 1018.8 |
| 20260905091536 | 51 | 163 | 3.0 | 5.0 | 0.00 | 0.02 | 0.00 | 86 | 1018.7 |
| 20260905090037 | 51 | 170 | 4.0 | 6.0 | 0.00 | 0.02 | 0.00 | 86 | 1018.6 |
| 20260905084536 | 51 | 174 | 4.0 | 5.0 | 0.00 | 0.02 | 0.00 | 86 | 1018.6 |
| 20260905083037 | 51 | 167 | 3.0 | 5.0 | 0.00 | 0.02 | 0.00 | 86 | 1018.6 |
| 20260905081536 | 50 | 162 | 3.0 | 5.0 | 0.00 | 0.02 | 0.00 | 87 | 1018.6 |
| 20260905080037 | 50 | 153 | 2.0 | 5.0 | 0.00 | 0.02 | 0.00 | 87 | 1018.4 |
| 20260905074537 | 50 | 166 | 1.0 | 4.0 | 0.00 | 0.02 | 0.00 | 87 | 1018.3 |
| 20260905073038 | 50 | 157 | 0.0 | 0.0 | 0.00 | 0.02 | 0.00 | 87 | 1018.3 |
| 20260905071538 | 50 | 188 | 1.0 | 3.0 | 0.00 | 0.02 | 0.00 | 87 | 1018.1 |
| 20260905070036 | 50 | 157 | 1.0 | 3.0 | 0.00 | 0.02 | 0.00 | 86 | 1017.9 |
| 20260905064537 | 50 | 176 | 2.0 | 4.0 | 0.00 | 0.02 | 0.02 | 85 | 1017.8 |
| 20260905060038 | 51 | 169 | 2.0 | 4.0 | 0.00 | 0.02 | 0.02 | 82 | 1017.7 |
| 20260905053037 | 53 | 163 | 3.0 | 5.0 | 0.00 | 0.02 | 0.02 | 81 | 1017.7 |
| 20260905050036 | 53 | 180 | 4.0 | 6.0 | 0.00 | 0.02 | 0.02 | 81 | 1017.5 |
| 20260905044537 | 53 | 178 | 4.0 | 6.0 | 0.00 | 0.02 | 0.02 | 79 | 1017.5 |
| 20260905043037 | 55 | 204 | 3.0 | 5.0 | 0.00 | 0.02 | 0.02 | 77 | 1017.5 |
| 20260905041539 | 56 | 31 | 0.0 | 4.0 | 0.00 | 0.02 | 0.02 | 77 | 1017.5 |
| 20260905040036 | 55 | 45 | 0.0 | 0.0 | 0.00 | 0.02 | 0.02 | 77 | 1017.5 |
| 20260905034538 | 55 | 45 | 0.0 | 0.0 | 0.00 | 0.02 | 0.02 | 75 | 1017.3 |
| 20260905033036 | 56 | 38 | 0.0 | 1.0 | 0.00 | 0.02 | 0.02 | 71 | 1017.0 |
| 20260905031549 | 58 | 10 | 0.0 | 5.0 | 0.00 | 0.02 | 0.02 | 68 | 1016.9 |
| 20260905030037 | 59 | 320 | 2.0 | 9.0 | 0.00 | 0.02 | 0.02 | 68 | 1016.8 |
| 20260905023038 | 59 | 311 | 2.0 | 7.0 | 0.00 | 0.02 | 0.02 | 67 | 1016.8 |
| 20260905021538 | 60 | 313 | 2.0 | 10.0 | 0.00 | 0.02 | 0.02 | 66 | 1016.7 |
| 20260905020035 | 61 | 328 | 1.0 | 6.0 | 0.00 | 0.02 | 0.02 | 64 | 1016.5 |
| 20260905014531 | 62 | 316 | 1.0 | 6.0 | 0.00 | 0.02 | 0.02 | 62 | 1016.3 |
| 20260905013028 | 63 | 308 | 3.0 | 9.0 | 0.00 | 0.02 | 0.02 | 62 | 1016.0 |
| 20260905011535 | 62 | 295 | 4.0 | 10.0 | 0.00 | 0.02 | 0.02 | 62 | 1015.9 |
| 20260905010036 | 64 | 298 | 3.0 | 8.0 | 0.00 | 0.02 | 0.02 | 58 | 1015.8 |
| 20260905004531 | 66 | 307 | 4.0 | 11.0 | 0.00 | 0.02 | 0.02 | 56 | 1015.7 |
| 20260905001535 | 66 | 300 | 4.0 | 11.0 | 0.00 | 0.02 | 0.02 | 57 | 1015.6 |
| 20260905000032 | 64 | 297 | 4.0 | 10.0 | 0.00 | 0.02 | 0.02 | 60 | 1015.5 |
| 20260904234531 | 63 | 291 | 3.0 | 8.0 | 0.01 | 0.02 | 0.02 | 60 | 1015.5 |
| 20260904233035 | 63 | 266 | 6.0 | 11.0 | 0.02 | 0.02 | 0.02 | 63 | 1015.6 |
| 20260904231531 | 59 | 253 | 4.0 | 11.0 | 0.02 | 0.02 | 0.02 | 69 | 1015.7 |
| 20260904230106 | 59 | 222 | 5.0 | 13.0 | 0.02 | 0.02 | 0.01 | 70 | 1015.8 |
| 20260904224531 | 59 | 334 | 0.0 | 0.0 | 0.01 | 0.01 | 0.00 | 66 | 1015.5 |
| 20260904223037 | 61 | 326 | 1.0 | 7.0 | 0.00 | 0.00 | 0.00 | 60 | 1015.2 |
| 20260904221536 | 66 | 316 | 1.0 | 6.0 | 0.00 | 0.00 | 0.00 | 53 | 1015.1 |
| 20260904220030 | 67 | 292 | 1.0 | 6.0 | 0.00 | 0.00 | 0.00 | 52 | 1015.1 |
| 20260904214533 | 67 | 286 | 1.0 | 7.0 | 0.00 | 0.00 | 0.00 | 51 | 1015.0 |
| 20260904213030 | 66 | 331 | 1.0 | 6.0 | 0.00 | 0.00 | 0.00 | 51 | 1015.0 |
| 20260904211534 | 65 | 15 | 1.0 | 7.0 | 0.00 | 0.00 | 0.00 | 51 | 1015.1 |
| 20260904204534 | 66 | 356 | 1.0 | 8.0 | 0.00 | 0.00 | 0.00 | 53 | 1015.2 |
| 20260904203035 | 65 | 10 | 1.0 | 6.0 | 0.00 | 0.00 | 0.00 | 53 | 1015.3 |
| 20260904201533 | 64 | 329 | 1.0 | 5.0 | 0.00 | 0.00 | 0.00 | 54 | 1015.3 |
| 20260904200037 | 64 | 47 | 1.0 | 5.0 | 0.00 | 0.00 | 0.00 | 53 | 1015.3 |
| 20260904194606 | 65 | 43 | 1.0 | 9.0 | 0.00 | 0.00 | 0.00 | 54 | 1015.4 |
| 20260904193033 | 66 | 17 | 1.0 | 6.0 | 0.00 | 0.00 | 0.00 | 54 | 1015.6 |
| 20260904190030 | 65 | 18 | 1.0 | 7.0 | 0.00 | 0.00 | 0.00 | 59 | 1015.7 |
| 20260904184611 | 64 | 338 | 1.0 | 10.0 | 0.00 | 0.00 | 0.00 | 59 | 1015.7 |
| 20260904183037 | 63 | 42 | 2.0 | 7.0 | 0.00 | 0.00 | 0.00 | 61 | 1015.7 |
| 20260904181535 | 62 | 359 | 0.0 | 5.0 | 0.00 | 0.00 | 0.00 | 64 | 1015.7 |
| 20260904180034 | 63 | 327 | 2.0 | 7.0 | 0.00 | 0.00 | 0.00 | 64 | 1015.7 |
| 20260904174534 | 62 | 299 | 2.0 | 8.0 | 0.00 | 0.00 | 0.00 | 67 | 1015.6 |
| 20260904171536 | 60 | 322 | 0.0 | 5.0 | 0.00 | 0.00 | 0.00 | 73 | 1015.6 |
| 20260904164539 | 59 | 344 | 0.0 | 1.0 | 0.00 | 0.00 | 0.00 | 74 | 1015.6 |
| 20260904163038 | 60 | 343 | 0.0 | 4.0 | 0.00 | 0.00 | 0.00 | 76 | 1015.6 |
| 20260904161536 | 60 | 348 | 0.0 | 3.0 | 0.00 | 0.00 | 0.00 | 80 | 1015.6 |
| 20260904160037 | 61 | 339 | 0.0 | 3.0 | 0.00 | 0.00 | 0.00 | 86 | 1015.6 |